星链-35780(STARLINK-35780)

导读 | 豆包AI

STARLINK-35780是美国SpaceX公司星链(Starlink)卫星互联网星座的成员,于2025年12月8日发射,运行在近地轨道,是星链大规模组网计划的一部分。 该卫星承担全球宽带互联网接入服务,重点为传统网络基础设施缺失的偏远、乡村区域提供高速低延迟连接,下载速度可达50Mbps至100Mbps,延迟仅20-40毫秒,满足视频通话、在线游戏等需求,同时服务也延伸至海洋、空中移动场景,助力缩小全球数字鸿沟。

基本信息
目录编号:
66974
目录名称:
STARLINK-35780
国际标识:
2025-288R
轨道中心:
EARTH
卫星名称:
星链-35780
卫星全名:
星链-35780(STARLINK-35780)
卫星状态:
在轨 (已飞行96 天)
发射日期:
2025-12-08 UTC
国别 :
美国 (US)
星等 :
--
轨道信息
数据来源 国际轨道数据
星历时间: 2026-03-13T13:30:53+0800
21小时前
查看轨道信息
半长轴: 6861.1km
偏心率: 0.0001163
轨道倾角: 43.000°
近地点辐角 262.332°
升交点赤经 3.041°
平近点角 97.740°
近地点: 482.165km
远地点: 483.761km
周期: 94.265分钟
每日圈数: 15.276089
详细信息
固有亮度:
5
最大亮度:
2.5
卫星平台:
Starlink V1.0
覆盖范围:
全球
运营商:
太空探索技术公司
运营商所在国:
美国
制造商(研发单位):
太空探索技术公司
制造商所在国:
美国
使用方式:
暂无
卫星简介
Starlink 计划是 SpaceX 推出的全球卫星互联网项目,通过发射低轨道卫星,为全球尤其是偏远地区提供高速、低延迟的互联网服务。自 2019 年起,Starlink 已部署数千颗卫星,旨在缩小全球数字鸿沟,推动互联网普及。该项目还为军事、航空等行业提供通信支持,带来广泛经济效益。
2D轨道图
3D轨道图
轨道高度分析图
轨道倾角分析图
轨道综合分析图
查看轨道综合分析图